DW7110 Weather Reports


time (UTC)temp
C
wind
direction
speed
KPH
gust
KPH
rain 1hr
cm
rain 24hr
cm
rain mn
cm
humidity
%
barometer
mb
20260906083002 19 1 0.0 0.0 0.00 0.00 0.00 93 1014.1
20260906081502 20 1 0.0 0.0 0.00 0.00 0.00 94 1014.2
20260906080001 20 1 0.0 0.0 0.00 0.00 0.00 94 1014.1
20260906074502 20 1 0.0 0.0 0.00 0.00 0.00 94 1014.0
20260906073100 20 1 0.0 0.0 0.00 0.00 0.00 93 1013.9
20260906071600 19 1 0.0 0.0 0.00 0.00 0.00 93 1014.0
20260906070058 19 1 0.0 0.0 0.00 0.00 0.00 93 1014.2
20260906064558 19 1 0.0 0.0 0.00 0.00 0.00 92 1014.2
20260906063056 19 1 0.0 0.0 0.00 0.00 0.00 93 1014.1
20260906061601 20 1 0.0 0.0 0.00 0.00 0.00 92 1014.1
20260906060057 20 1 0.0 0.0 0.00 0.00 0.00 93 1014.2
20260906054549 20 1 0.0 0.0 0.00 0.00 0.00 93 1014.6
20260906053048 20 1 0.0 0.0 0.00 0.00 0.00 93 1014.8
20260906051546 20 1 0.0 0.0 0.00 0.00 0.00 92 1014.9
20260906050145 20 1 0.0 0.0 0.00 0.00 0.00 92 1015.1
20260906044545 20 1 0.0 0.0 0.00 0.00 0.00 93 1015.1
20260906043043 20 1 0.0 0.0 0.00 0.00 0.00 92 1015.0
20260906041542 20 1 0.0 0.0 0.00 0.00 0.00 91 1015.0
20260906040039 20 1 0.0 0.0 0.00 0.00 0.00 92 1015.1
20260906034538 20 1 0.0 0.0 0.00 0.00 0.00 92 1015.1
20260906033039 20 1 0.0 0.0 0.00 0.00 0.00 91 1015.2
20260906031540 20 1 0.0 0.0 0.00 0.00 0.00 91 1015.2
20260906030037 21 1 0.0 1.6 0.00 0.00 0.00 91 1015.0
20260906024539 20 1 0.0 4.8 0.00 0.00 0.00 91 1015.1
20260906023042 21 1 0.0 0.0 0.00 0.00 0.00 91 1015.1
20260906021543 21 1 0.0 0.0 0.00 0.00 0.00 91 1014.7
20260906020035 21 1 0.0 0.0 0.00 0.00 0.00 91 1014.6
20260906014541 21 1 0.0 0.0 0.00 0.00 0.00 91 1014.3
20260906013042 21 1 0.0 0.0 0.00 0.00 0.00 90 1014.4
20260906011536 21 1 0.0 0.0 0.00 0.00 0.00 90 1014.3
20260906010033 21 1 0.0 0.0 0.00 0.00 0.00 89 1014.1
20260906004534 22 1 0.0 0.0 0.00 0.00 0.00 89 1014.0
20260906003033 22 1 0.0 0.0 0.00 0.00 0.00 89 1014.1
20260906001532 22 1 0.0 0.0 0.00 0.00 0.00 89 1014.0
20260906000032 22 1 0.0 0.0 0.00 0.00 0.00 88 1013.9
20260905234531 22 1 0.0 0.0 0.00 0.00 0.00 88 1013.7
20260905233031 22 1 0.0 0.0 0.00 0.00 0.00 89 1013.7
20260905231531 23 1 0.0 0.0 0.00 0.00 0.00 89 1013.6
20260905230029 23 1 0.0 0.0 0.00 0.00 0.00 87 1013.5
20260905224531 23 1 0.0 0.0 0.00 0.00 0.00 87 1013.2
20260905223028 23 1 0.0 0.0 0.00 0.00 0.00 87 1013.2
20260905221527 23 1 0.0 0.0 0.00 0.00 0.00 87 1013.5
20260905220025 23 1 0.0 0.0 0.00 0.00 0.00 88 1013.6
20260905214525 23 1 0.0 0.0 0.00 0.00 0.00 87 1013.6
20260905213024 23 1 0.0 0.0 0.00 0.00 0.00 87 1013.7
20260905211523 23 1 0.0 0.0 0.00 0.00 0.00 86 1014.1
20260905210021 23 1 0.0 0.0 0.00 0.00 0.00 86 1014.2
20260905204520 23 1 0.0 0.0 0.00 0.03 0.00 86 1014.2
20260905203021 23 1 0.0 0.0 0.00 0.03 0.00 85 1014.5
20260905201520 23 1 0.0 0.0 0.00 0.03 0.00 84 1014.1
20260905200026 24 1 0.0 0.0 0.00 0.03 0.00 82 1014.3
20260905194519 25 1 0.0 0.0 0.00 0.03 0.00 79 1014.2
20260905193018 27 1 0.0 16.1 0.00 0.03 0.00 74 1014.1
20260905191521 28 1 0.0 1.6 0.00 0.03 0.00 70 1014.3
20260905190029 27 1 0.0 0.0 0.00 0.03 0.00 70 1014.3
20260905184522 27 1 0.0 0.0 0.00 0.03 0.00 74 1014.2
20260905183015 27 1 0.0 0.0 0.00 0.03 0.00 70 1014.2
20260905181515 27 1 0.0 0.0 0.00 0.03 0.00 70 1014.2
20260905180012 27 1 0.0 4.8 0.00 0.03 0.00 72 1014.9
20260905174510 28 1 0.0 11.3 0.00 0.03 0.00 71 1015.0
20260905173010 29 1 0.0 0.0 0.00 0.03 0.00 73 1014.9
20260905171506 29 1 0.0 0.0 0.00 0.03 0.00 76 1014.8
20260905170002 28 1 0.0 0.0 0.00 0.03 0.00 80 1014.8
20260905164600 28 1 0.0 0.0 0.00 0.03 0.00 83 1015.0
20260905163057 27 1 0.0 0.0 0.00 0.03 0.00 83 1015.5
20260905161553 27 1 0.0 0.0 0.00 0.03 0.00 85 1015.7
20260905160055 26 1 0.0 0.0 0.00 0.03 0.00 87 1015.7
20260905154548 25 1 0.0 0.0 0.00 0.03 0.00 88 1015.8
20260905153059 25 1 0.0 0.0 0.00 0.03 0.00 89 1015.9
20260905151540 24 1 0.0 0.0 0.00 0.03 0.00 89 1016.0
20260905150036 23 1 0.0 0.0 0.00 0.03 0.00 91 1016.3
20260905144532 22 1 0.0 0.0 0.00 0.03 0.00 92 1016.4
20260905143029 22 1 0.0 0.0 0.00 0.03 0.00 93 1016.4
20260905141530 21 1 0.0 0.0 0.00 0.03 0.00 93 1016.5
20260905140024 21 1 0.0 0.0 0.00 0.03 0.00 93 1016.8
20260905134522 20 1 0.0 0.0 0.00 0.03 0.00 94 1016.9
20260905133021 20 1 0.0 0.0 0.00 0.03 0.00 94 1016.9
20260905131521 20 1 0.0 0.0 0.00 0.03 0.00 94 1017.0
20260905130020 20 1 0.0 0.0 0.00 0.03 0.00 94 1017.1
20260905124523 19 1 0.0 0.0 0.00 0.03 0.00 94 1017.0
20260905123020 19 1 0.0 0.0 0.00 0.03 0.00 94 1016.7
20260905121519 19 1 0.0 0.0 0.00 0.03 0.00 93 1016.8
20260905120021 19 1 0.0 0.0 0.00 0.03 0.00 94 1016.8
20260905114518 19 1 0.0 0.0 0.00 0.03 0.00 94 1016.6
20260905113017 19 1 0.0 0.0 0.00 0.03 0.00 94 1016.2
20260905111518 19 1 0.0 0.0 0.00 0.03 0.00 93 1016.0
20260905110015 19 1 0.0 0.0 0.00 0.03 0.00 93 1015.8
20260905104514 19 1 0.0 0.0 0.00 0.03 0.00 93 1015.6
20260905103013 19 1 0.0 0.0 0.00 0.03 0.00 93 1015.6
20260905101513 19 1 0.0 0.0 0.00 0.03 0.00 93 1015.5
20260905100011 19 1 0.0 0.0 0.00 0.03 0.00 93 1015.4
20260905094510 20 1 0.0 0.0 0.00 0.03 0.00 93 1015.5
20260905093009 20 1 0.0 0.0 0.00 0.03 0.00 93 1015.5
20260905091508 20 1 0.0 0.0 0.00 0.03 0.00 93 1015.5
20260905090006 20 1 0.0 0.0 0.00 0.03 0.00 93 1015.7
20260905084505 20 1 0.0 0.0 0.00 0.03 0.00 93 1015.7